RYR84KK LEAM-EBCI

Flight info

Callsign RYR84KK
Flight time N/A
Altitude 34000
Route ESILA N865 VTB DCT RBO DCT OSTIX DCT GASMO DCT DGO N858 ABRIX DCT CNA DCT ADABI DCT BOKNO UN858 VANAD UN874 BAMES UT191 PODEM UN873 BAZOS DCT BELDI DCT VEKIN Z173 ARVOL
Aircraft B738/M-SDFGILRWY/SB1

Departure

Time 2026-04-21 14:00
Airport Almería Airport (LEAM)

Arrival

Time N/A
Airport Brussels South Charleroi Airport (EBCI)
Time Latitude Longitude Altitude Speed Heading
2026-04-21 13:34 36.84714 -2.37009 79 ft 0 kts 119°
2026-04-21 13:56 36.84713 -2.37006 79 ft 1 kts 119°
2026-04-21 13:56 36.84677 -2.36985 76 ft 11 kts 171°
2026-04-21 13:56 36.84617 -2.36900 70 ft 14 kts 124°
2026-04-21 13:57 36.84621 -2.36791 66 ft 14 kts 73°
2026-04-21 13:57 36.84658 -2.36639 64 ft 21 kts 73°
2026-04-21 13:57 36.84705 -2.36440 67 ft 25 kts 74°
2026-04-21 13:57 36.84757 -2.36235 72 ft 26 kts 73°
2026-04-21 13:58 36.84814 -2.36002 76 ft 28 kts 73°
2026-04-21 13:58 36.84869 -2.35777 81 ft 25 kts 73°
2026-04-21 13:58 36.84919 -2.35576 87 ft 23 kts 73°
2026-04-21 13:58 36.84949 -2.35415 92 ft 15 kts 95°
2026-04-21 13:59 36.84876 -2.35327 89 ft 15 kts 161°
2026-04-21 13:59 36.84812 -2.35322 87 ft 7 kts 224°
2026-04-21 13:59 36.84788 -2.35399 84 ft 11 kts 253°
2026-04-21 13:59 36.84739 -2.35600 78 ft 53 kts 253°
2026-04-21 14:00 36.84559 -2.36334 62 ft 120 kts 253°
2026-04-21 14:00 36.84257 -2.37561 59 ft 172 kts 253°
2026-04-21 14:00 36.83898 -2.38996 631 ft 175 kts 251°
2026-04-21 14:00 36.83499 -2.40431 1227 ft 183 kts 250°
2026-04-21 14:01 36.83062 -2.41988 1647 ft 202 kts 252°
2026-04-21 14:01 36.82642 -2.43720 2045 ft 215 kts 253°
2026-04-21 14:01 36.82220 -2.45569 2422 ft 231 kts 253°
2026-04-21 14:01 36.81767 -2.47538 2873 ft 243 kts 253°
2026-04-21 14:02 36.81290 -2.49584 3455 ft 249 kts 253°
2026-04-21 14:02 36.80801 -2.51658 4122 ft 251 kts 252°
2026-04-21 14:02 36.80288 -2.53745 4816 ft 252 kts 252°
2026-04-21 14:03 36.79211 -2.58047 5733 ft 272 kts 252°
2026-04-21 14:03 36.78689 -2.60320 6335 ft 278 kts 257°
2026-04-21 14:03 36.78577 -2.62717 7002 ft 281 kts 278°
2026-04-21 14:03 36.79195 -2.65014 7736 ft 284 kts 298°
2026-04-21 14:04 36.80362 -2.67002 8476 ft 286 kts 311°
2026-04-21 14:04 36.81900 -2.68570 9186 ft 291 kts 330°
2026-04-21 14:04 36.83786 -2.69481 9974 ft 294 kts 341°
2026-04-21 14:04 36.85770 -2.70178 10520 ft 304 kts 342°
2026-04-21 14:05 36.87865 -2.70898 10974 ft 317 kts 342°
2026-04-21 14:05 36.90023 -2.71671 11368 ft 331 kts 341°
2026-04-21 14:05 36.92260 -2.72502 11879 ft 343 kts 341°
2026-04-21 14:05 36.94572 -2.73375 12681 ft 345 kts 341°
2026-04-21 14:06 36.96874 -2.74248 13441 ft 349 kts 340°
2026-04-21 14:06 36.99192 -2.75131 14212 ft 353 kts 340°
2026-04-21 14:06 37.01541 -2.76055 14918 ft 359 kts 338°
2026-04-21 14:06 37.03824 -2.77376 15658 ft 360 kts 325°
2026-04-21 14:07 37.05687 -2.79401 16425 ft 358 kts 307°
2026-04-21 14:07 37.07036 -2.81995 17149 ft 359 kts 296°
2026-04-21 14:07 37.08167 -2.84770 17829 ft 363 kts 294°
2026-04-21 14:07 37.09271 -2.87596 18522 ft 366 kts 294°
2026-04-21 14:08 37.10395 -2.90486 19213 ft 369 kts 294°
2026-04-21 14:08 37.11526 -2.93379 19875 ft 372 kts 294°
2026-04-21 14:08 37.12674 -2.96295 20545 ft 375 kts 294°
2026-04-21 14:08 37.13833 -2.99234 21152 ft 379 kts 294°
2026-04-21 14:09 37.14994 -3.02171 21763 ft 383 kts 294°
2026-04-21 14:09 37.16184 -3.05178 22349 ft 387 kts 294°
2026-04-21 14:09 37.17379 -3.08195 22940 ft 390 kts 294°
2026-04-21 14:09 37.18584 -3.11242 23526 ft 393 kts 294°
2026-04-21 14:10 37.19794 -3.14304 24149 ft 395 kts 293°